CMP202 MPTO-SKCG

Flight info

Callsign CMP202
Flight time 0h 41m
Altitude 33000
Route REMA1B REMAL IRAXU IRAX2B
Aircraft B38M/M-SDE3FGHIRWY/S

Departure

Time 2026-05-07 02:10
Airport Tocumen International Airport (MPTO)

Arrival

Time 2026-05-07 02:52
Airport Rafael Nuñez International Airport (SKCG)
Time Latitude Longitude Altitude Speed Heading
2026-05-07 01:27 9.07048 -79.38497 33 ft 0 kts 300°
2026-05-07 01:59 9.07036 -79.38476 33 ft 4 kts 306°
2026-05-07 01:59 9.07018 -79.38456 33 ft 4 kts 322°
2026-05-07 02:00 9.06996 -79.38446 33 ft 4 kts
2026-05-07 02:00 9.06988 -79.38449 33 ft 0 kts 28°
2026-05-07 02:04 9.06992 -79.38446 33 ft 2 kts 28°
2026-05-07 02:04 9.07011 -79.38436 33 ft 4 kts 28°
2026-05-07 02:04 9.07046 -79.38417 33 ft 7 kts 25°
2026-05-07 02:04 9.07084 -79.38396 33 ft 7 kts 28°
2026-05-07 02:05 9.07131 -79.38378 33 ft 5 kts 346°
2026-05-07 02:05 9.07142 -79.38389 33 ft 1 kts 298°
2026-05-07 02:05 9.07147 -79.38398 33 ft 2 kts 298°
2026-05-07 02:05 9.07153 -79.38410 33 ft 2 kts 298°
2026-05-07 02:06 9.07162 -79.38426 33 ft 3 kts 298°
2026-05-07 02:06 9.07173 -79.38445 33 ft 4 kts 301°
2026-05-07 02:06 9.07191 -79.38475 33 ft 6 kts 301°
2026-05-07 02:06 9.07216 -79.38516 34 ft 7 kts 301°
2026-05-07 02:07 9.07244 -79.38563 36 ft 8 kts 294°
2026-05-07 02:07 9.07262 -79.38630 41 ft 1 kts 278°
2026-05-07 02:07 9.07265 -79.38645 43 ft 0 kts 288°
2026-05-07 02:08 9.07270 -79.38659 44 ft 10 kts 291°
2026-05-07 02:08 9.07302 -79.38712 46 ft 6 kts 359°
2026-05-07 02:08 9.07331 -79.38699 49 ft 0 kts 30°
2026-05-07 02:09 9.07373 -79.38675 50 ft 32 kts 30°
2026-05-07 02:10 9.07789 -79.38426 52 ft 104 kts 31°
2026-05-07 02:10 9.08921 -79.37746 77 ft 174 kts 31°
2026-05-07 02:10 9.10003 -79.37076 624 ft 185 kts 32°
2026-05-07 02:10 9.10749 -79.36608 1142 ft 188 kts 30°
2026-05-07 02:11 9.11783 -79.35820 1972 ft 188 kts 46°
2026-05-07 02:11 9.12398 -79.34539 2226 ft 222 kts 81°
2026-05-07 02:11 9.12168 -79.32955 2756 ft 240 kts 111°
2026-05-07 02:11 9.11500 -79.31372 3573 ft 247 kts 110°
2026-05-07 02:12 9.10836 -79.29729 4302 ft 258 kts 110°
2026-05-07 02:12 9.10158 -79.28024 5098 ft 263 kts 110°
2026-05-07 02:12 9.09671 -79.26212 5790 ft 273 kts 95°
2026-05-07 02:12 9.09728 -79.24248 6273 ft 288 kts 78°
2026-05-07 02:13 9.10246 -79.22240 6730 ft 302 kts 73°
2026-05-07 02:13 9.10809 -79.20146 7331 ft 312 kts 74°
2026-05-07 02:13 9.11374 -79.18011 8046 ft 316 kts 74°
2026-05-07 02:13 9.11938 -79.15860 8773 ft 318 kts 74°
2026-05-07 02:14 9.12504 -79.13690 9443 ft 321 kts 74°
2026-05-07 02:14 9.13075 -79.11501 10111 ft 323 kts 75°
2026-05-07 02:14 9.13648 -79.09299 10793 ft 325 kts 75°
2026-05-07 02:14 9.14227 -79.07072 11520 ft 327 kts 76°
2026-05-07 02:15 9.14802 -79.04859 12250 ft 330 kts 76°
2026-05-07 02:15 9.15389 -79.02604 13012 ft 333 kts 76°
2026-05-07 02:15 9.15982 -79.00323 13774 ft 336 kts 76°
2026-05-07 02:15 9.16580 -78.98021 14521 ft 339 kts 76°
2026-05-07 02:16 9.17183 -78.95701 15279 ft 343 kts 76°
2026-05-07 02:16 9.17792 -78.93359 16012 ft 346 kts 76°
2026-05-07 02:16 9.18405 -78.90995 16719 ft 349 kts 76°
2026-05-07 02:16 9.19027 -78.88600 17377 ft 353 kts 76°
2026-05-07 02:17 9.19654 -78.86186 18031 ft 356 kts 75°
2026-05-07 02:17 9.20284 -78.83756 18668 ft 359 kts 75°
2026-05-07 02:17 9.20921 -78.81300 19267 ft 362 kts 75°
2026-05-07 02:17 9.21564 -78.78823 19829 ft 365 kts 75°
2026-05-07 02:18 9.22212 -78.76323 20405 ft 368 kts 75°
2026-05-07 02:18 9.22863 -78.73812 20931 ft 372 kts 75°
2026-05-07 02:18 9.23523 -78.71264 21452 ft 374 kts 75°
2026-05-07 02:18 9.24184 -78.68712 21964 ft 377 kts 75°
2026-05-07 02:19 9.24851 -78.66134 22440 ft 379 kts 74°
2026-05-07 02:19 9.25524 -78.63538 22919 ft 382 kts 74°
2026-05-07 02:19 9.26199 -78.60926 23373 ft 385 kts 74°
2026-05-07 02:19 9.26871 -78.58330 23813 ft 388 kts 74°
2026-05-07 02:20 9.27556 -78.55681 24259 ft 389 kts 74°
2026-05-07 02:20 9.28244 -78.53021 24662 ft 393 kts 74°
2026-05-07 02:20 9.28940 -78.50327 25041 ft 396 kts 74°
2026-05-07 02:20 9.29638 -78.47623 25417 ft 399 kts 74°
2026-05-07 02:21 9.30344 -78.44891 25815 ft 402 kts 74°
2026-05-07 02:21 9.31052 -78.42149 26188 ft 405 kts 74°
2026-05-07 02:21 9.31767 -78.39378 26563 ft 408 kts 74°
2026-05-07 02:21 9.32486 -78.36593 26943 ft 410 kts 74°
2026-05-07 02:22 9.33209 -78.33788 27307 ft 413 kts 74°
2026-05-07 02:22 9.33939 -78.30960 27648 ft 416 kts 74°
2026-05-07 02:22 9.34672 -78.28115 28011 ft 419 kts 74°
2026-05-07 02:22 9.35408 -78.25257 28363 ft 421 kts 74°
2026-05-07 02:23 9.36149 -78.22380 28706 ft 423 kts 74°
2026-05-07 02:23 9.36895 -78.19483 29024 ft 426 kts 74°
2026-05-07 02:23 9.37644 -78.16573 29355 ft 428 kts 74°
2026-05-07 02:23 9.38396 -78.13647 29660 ft 431 kts 74°
2026-05-07 02:24 9.39154 -78.10704 29961 ft 433 kts 74°
2026-05-07 02:24 9.39905 -78.07783 30276 ft 435 kts 74°
2026-05-07 02:24 9.40680 -78.04769 30553 ft 438 kts 74°
2026-05-07 02:24 9.41438 -78.01818 30795 ft 441 kts 74°
2026-05-07 02:25 9.42212 -77.98805 31067 ft 444 kts 74°
2026-05-07 02:25 9.42991 -77.95771 31309 ft 446 kts 74°
2026-05-07 02:25 9.43777 -77.92709 31544 ft 450 kts 74°
2026-05-07 02:25 9.44565 -77.89636 31798 ft 452 kts 74°
2026-05-07 02:26 9.45359 -77.86541 32028 ft 455 kts 74°
2026-05-07 02:26 9.46156 -77.83430 32266 ft 458 kts 74°
2026-05-07 02:26 9.46962 -77.80287 32520 ft 460 kts 74°
2026-05-07 02:26 9.47765 -77.77153 32826 ft 461 kts 74°
2026-05-07 02:27 9.48571 -77.74004 32927 ft 463 kts 74°
2026-05-07 02:27 9.49369 -77.70888 32906 ft 461 kts 75°
2026-05-07 02:27 9.50977 -77.64603 32905 ft 461 kts 75°
2026-05-07 02:28 9.52585 -77.58310 32909 ft 461 kts 75°
2026-05-07 02:28 9.54193 -77.52014 32903 ft 461 kts 75°
2026-05-07 02:29 9.55799 -77.45722 32912 ft 461 kts 75°
2026-05-07 02:29 9.57583 -77.39571 32906 ft 448 kts 70°
2026-05-07 02:30 9.59562 -77.33666 32908 ft 444 kts 70°
2026-05-07 02:30 9.61512 -77.27732 32905 ft 444 kts 71°
2026-05-07 02:31 9.63461 -77.21784 32907 ft 444 kts 71°
2026-05-07 02:31 9.65407 -77.15839 32911 ft 444 kts 71°
2026-05-07 02:32 9.67381 -77.09805 32158 ft 462 kts 71°
2026-05-07 02:32 9.68399 -77.06692 31222 ft 467 kts 71°
2026-05-07 02:32 9.69414 -77.03587 31082 ft 463 kts 71°
2026-05-07 02:33 9.71439 -76.97387 30996 ft 461 kts 71°
2026-05-07 02:33 9.73457 -76.91211 31004 ft 461 kts 70°
2026-05-07 02:34 9.75442 -76.85124 30548 ft 448 kts 70°
2026-05-07 02:34 9.76415 -76.82143 29612 ft 442 kts 70°
2026-05-07 02:34 9.77374 -76.79200 28589 ft 442 kts 70°
2026-05-07 02:35 9.78350 -76.76204 27707 ft 453 kts 70°
2026-05-07 02:35 9.79352 -76.73128 26833 ft 461 kts 70°
2026-05-07 02:35 9.80360 -76.70034 25987 ft 462 kts 70°
2026-05-07 02:35 9.81360 -76.66960 25153 ft 458 kts 70°
2026-05-07 02:36 9.82355 -76.63906 24317 ft 452 kts 70°
2026-05-07 02:36 9.83322 -76.60934 23507 ft 446 kts 70°
2026-05-07 02:36 9.84288 -76.57964 22688 ft 439 kts 70°
2026-05-07 02:36 9.85239 -76.55038 21878 ft 434 kts 71°
2026-05-07 02:37 9.86178 -76.52149 21065 ft 429 kts 71°
2026-05-07 02:37 9.87104 -76.49298 20271 ft 424 kts 71°
2026-05-07 02:37 9.88022 -76.46474 19474 ft 419 kts 71°
2026-05-07 02:37 9.88927 -76.43686 18682 ft 414 kts 71°
2026-05-07 02:38 9.89823 -76.40929 17945 ft 410 kts 71°
2026-05-07 02:38 9.90713 -76.38192 17297 ft 407 kts 71°
2026-05-07 02:38 9.91785 -76.35558 16589 ft 403 kts 67°
2026-05-07 02:38 9.92892 -76.32956 16021 ft 401 kts 67°
2026-05-07 02:39 9.93985 -76.30348 15433 ft 398 kts 68°
2026-05-07 02:39 9.95056 -76.27772 14853 ft 396 kts 68°
2026-05-07 02:39 9.96119 -76.25207 14281 ft 393 kts 68°
2026-05-07 02:39 9.97174 -76.22663 13722 ft 391 kts 68°
2026-05-07 02:40 9.98212 -76.20155 13223 ft 390 kts 68°
2026-05-07 02:40 9.99257 -76.17631 12694 ft 387 kts 69°
2026-05-07 02:40 10.00293 -76.15126 12163 ft 384 kts 69°
2026-05-07 02:40 10.01323 -76.12637 11618 ft 381 kts 69°
2026-05-07 02:41 10.02345 -76.10166 11089 ft 379 kts 69°
2026-05-07 02:41 10.03360 -76.07711 10564 ft 376 kts 69°
2026-05-07 02:41 10.04367 -76.05276 10044 ft 373 kts 69°
2026-05-07 02:41 10.05370 -76.02850 9531 ft 371 kts 69°
2026-05-07 02:42 10.06365 -76.00442 9023 ft 369 kts 68°
2026-05-07 02:42 10.07355 -75.98045 8508 ft 367 kts 68°
2026-05-07 02:42 10.08336 -75.95670 8002 ft 363 kts 68°
2026-05-07 02:42 10.09309 -75.93314 7499 ft 360 kts 68°
2026-05-07 02:43 10.10273 -75.90977 6999 ft 357 kts 68°
2026-05-07 02:43 10.11230 -75.88658 6496 ft 355 kts 68°
2026-05-07 02:43 10.12179 -75.86359 5998 ft 352 kts 68°
2026-05-07 02:43 10.13108 -75.84106 5511 ft 350 kts 67°
2026-05-07 02:44 10.14037 -75.81856 5261 ft 340 kts 67°
2026-05-07 02:44 10.14731 -75.80172 5114 ft 332 kts 67°
2026-05-07 02:44 10.15607 -75.78047 4928 ft 321 kts 67°
2026-05-07 02:44 10.16455 -75.75990 4768 ft 311 kts 67°
2026-05-07 02:45 10.17277 -75.73995 4592 ft 301 kts 66°
2026-05-07 02:45 10.18070 -75.72067 4444 ft 292 kts 66°
2026-05-07 02:45 10.18842 -75.70196 4296 ft 283 kts 66°
2026-05-07 02:45 10.19589 -75.68379 4157 ft 274 kts 66°
2026-05-07 02:46 10.20307 -75.66638 4024 ft 265 kts 66°
2026-05-07 02:46 10.21018 -75.64915 3889 ft 257 kts 66°
2026-05-07 02:46 10.21688 -75.63286 3762 ft 249 kts 66°
2026-05-07 02:46 10.22344 -75.61691 3630 ft 240 kts 66°
2026-05-07 02:47 10.22975 -75.60156 3510 ft 231 kts 66°
2026-05-07 02:47 10.23581 -75.58680 3438 ft 220 kts 65°
2026-05-07 02:47 10.24163 -75.57266 3312 ft 215 kts 66°
2026-05-07 02:47 10.24737 -75.55875 3174 ft 213 kts 65°
2026-05-07 02:48 10.25306 -75.54491 3053 ft 212 kts 65°
2026-05-07 02:48 10.25989 -75.53172 2907 ft 210 kts 45°
2026-05-07 02:48 10.27163 -75.52356 2741 ft 205 kts 16°
2026-05-07 02:48 10.28536 -75.52110 2588 ft 204 kts
2026-05-07 02:49 10.29962 -75.51984 2430 ft 205 kts
2026-05-07 02:49 10.31352 -75.51883 2283 ft 196 kts
2026-05-07 02:49 10.32663 -75.51805 2093 ft 180 kts
2026-05-07 02:49 10.33904 -75.51737 1868 ft 178 kts
2026-05-07 02:50 10.35121 -75.51669 1541 ft 170 kts
2026-05-07 02:50 10.36260 -75.51611 1288 ft 157 kts
2026-05-07 02:50 10.37327 -75.51568 1053 ft 151 kts
2026-05-07 02:50 10.38355 -75.51527 851 ft 149 kts
2026-05-07 02:51 10.39395 -75.51483 688 ft 152 kts
2026-05-07 02:51 10.40431 -75.51435 541 ft 150 kts
2026-05-07 02:51 10.41468 -75.51397 365 ft 150 kts
2026-05-07 02:51 10.42506 -75.51363 157 ft 149 kts
2026-05-07 02:52 10.43522 -75.51321 22 ft 140 kts
2026-05-07 02:52 10.44322 -75.51288 19 ft 79 kts
2026-05-07 02:52 10.44691 -75.51273 20 ft 44 kts
2026-05-07 02:52 10.44885 -75.51252 21 ft 7 kts 328°
2026-05-07 02:53 10.44843 -75.51269 21 ft 13 kts 183°
2026-05-07 02:53 10.44739 -75.51272 20 ft 17 kts 180°
2026-05-07 02:53 10.44650 -75.51331 19 ft 11 kts 259°
2026-05-07 02:53 10.44633 -75.51415 19 ft 13 kts 270°
2026-05-07 02:54 10.44646 -75.51504 21 ft 7 kts 271°
2026-05-07 02:54 10.44648 -75.51537 19 ft 2 kts 272°
2026-05-07 02:54 10.44648 -75.51543 19 ft 0 kts 272°